Wind_Speed
13 12 22 21 19 13 10 11 14 8 10 8 8 7 5 9 13 13 13 12 11 9 8 7 9 11 10 10 10 5 7 5 5 4 8 28 21 34 31 36 36 26 18 17
11 19 17 17 16 13 11 13 13 6 6 4 8 5 4 6 10 12 12 12 13 13 12 11 9 10 12 10 11 9 7 6 8 9 7 6 30 25 25 29 34 25 22 27
12 11 14 15 14 13 15 15 11 9 6 6 10 3 6 6 9 11 11 13 15 14 13 14 12 11 12 12 11 11 13 13 10 13 8 6 5 19 21 18 27 26 21 20
8 10 12 12 13 16 15 11 8 7 6 4 9 3 7 8 10 14 16 15 16 15 14 15 14 13 13 13 14 12 15 17 17 20 18 15 11 8 7 3 4 14 23 26
6 7 9 10 12 17 16 9 4 5 4 5 8 3 4 8 12 16 17 17 14 16 17 17 17 16 15 14 15 16 15 17 20 22 22 22 20 21 18 17 17 21 26 22
4 8 6 9 9 13 16 9 1 4 4 1 6 7 3 7 14 16 16 13 14 16 17 18 18 20 20 19 17 17 18 18 21 23 26 26 27 27 27 27 27 25 25 24
3 6 6 9 8 8 13 10 2 4 3 4 6 6 5 9 13 13 15 15 14 12 13 15 15 20 22 20 18 18 19 19 21 23 26 26 27 29 30 30 29 33 30 27
4 4 6 7 8 5 12 13 4 4 2 6 6 4 4 8 13 15 17 13 9 10 12 14 17 22 23 21 17 16 18 20 21 23 25 25 26 27 28 29 29 30 32 27
4 4 5 5 5 9 6 7 8 2 3 3 6 5 7 7 14 16 16 13 13 15 15 15 17 20 22 22 15 13 13 16 19 22 24 26 27 28 28 28 29 29 30 29
5 6 8 6 1 5 6 8 3 4 3 4 6 9 6 11 14 16 16 16 16 18 20 19 18 18 24 23 16 10 8 9 13 17 21 23 25 26 27 28 28 28 28 31
6 6 6 7 3 2 4 3 3 3 1 4 2 5 6 13 16 16 17 17 17 18 19 18 18 20 24 24 14 9 8 6 7 9 14 18 21 22 24 26 27 28 29 28
5 7 8 7 6 4 4 5 3 1 2 5 4 9 10 14 17 17 16 15 16 17 17 16 18 22 25 24 13 12 12 7 5 4 6 11 16 19 22 24 25 26 28 29
6 3 7 5 5 6 7 7 8 6 6 8 3 7 14 15 17 15 11 13 17 18 18 17 20 23 23 21 16 13 13 10 9 7 5 5 7 10 16 20 22 22 25 28
6 7 9 11 12 14 14 15 13 12 6 6 16 17 7 13 12 7 9 13 17 19 19 20 19 21 20 19 15 14 13 12 11 10 8 5 4 4 5 11 16 20 21 24
8 9 13 15 18 21 20 14 16 18 16 11 14 15 7 6 4 6 9 12 14 17 18 20 20 20 21 20 18 16 13 11 10 10 9 7 6 1 0 4 8 12 15 18
12 10 12 25 19 13 16 16 18 17 16 18 13 10 8 5 4 7 10 11 13 16 17 17 17 18 20 20 18 16 15 12 11 9 7 5 5 3 5 6 8 10 11 13
13 11 11 9 13 18 20 8 4 6 8 9 9 6 7 6 4 6 10 12 11 14 16 15 15 16 19 19 17 17 14 12 10 9 6 2 3 7 9 7 7 9 7 7
18 14 11 10 18 4 4 9 10 8 7 6 5 4 5 6 4 4 9 10 10 10 13 14 13 14 16 17 17 17 14 14 14 10 4 7 13 12 9 9 7 4 2 7
22 19 9 5 7 21 20 15 8 7 5 2 4 4 4 5 7 5 7 9 11 9 10 12 11 13 13 14 15 15 14 15 17 11 14 18 16 14 16 18 17 13 10 4
29 25 18 11 5 6 5 7 6 7 8 2 3 3 4 4 5 8 6 8 10 10 10 10 10 11 12 11 11 10 11 13 17 17 18 19 19 15 13 12 13 12 16 18
22 24 27 26 12 11 17 15 12 7 5 3 4 4 5 5 5 7 10 7 8 10 10 10 10 9 10 8 7 6 6 8 10 13 14 14 14 14 13 14 13 13 15 19
21 15 18 20 13 15 17 19 17 9 8 7 6 6 6 7 8 9 10 12 8 8 9 10 10 9 9 7 5 3 2 4 6 8 10 12 13 13 13 14 14 13 13 13
24 23 16 17 9 8 8 10 14 10 11 15 13 13 11 10 12 12 11 11 13 9 10 10 10 10 9 8 6 5 5 5 4 5 6 7 8 9 10 11 11 11 11 12
32 27 29 26 22 20 18 17 16 17 19 20 15 16 19 20 21 18 16 13 13 16 13 12 12 12 11 11 11 10 10 10 9 9 8 7 7 7 8 8 8 8 9 9
36 30 31 30 24 19 19 19 18 19 21 21 22 24 25 24 19 20 22 21 19 20 22 21 16 14 14 14 14 16 15 15 16 15 14 13 11 10 10 9 8 8 8 8
40 39 36 30 18 20 18 17 18 21 20 21 25 26 25 23 21 22 24 26 29 31 29 27 24 20 19 19 18 19 21 20 20 20 19 19 18 17 15 15 14 13 12 11
Wind_Direction
36 23 34 31 36 28 25 3 353 344 347 353 349 345 7 6 10 14 19 12 359 339 317 300 291 287 287 291 297 294 333 287 279 307 291 227 173 207 223 220 226 226 204 212
39 30 35 34 34 32 18 5 6 8 358 6 349 332 7 6 8 8 22 16 9 5 355 343 328 306 292 287 273 271 263 275 271 254 256 307 223 196 176 212 221 210 231 223
36 38 36 38 31 27 21 11 17 4 20 29 9 39 5 358 5 18 12 357 349 341 338 334 331 316 301 297 285 267 259 247 229 244 258 285 266 231 210 181 189 201 203 226
34 31 34 33 28 20 18 15 17 19 14 13 10 294 357 344 348 355 353 342 340 337 334 334 326 314 301 293 282 267 258 248 234 239 236 234 234 245 211 164 190 236 230 225
36 26 28 31 30 21 2 15 14 14 5 359 5 321 338 336 335 341 341 340 339 332 330 328 324 317 305 292 278 268 255 250 248 243 238 231 232 230 233 234 224 228 220 222
23 13 23 18 23 23 10 360 317 333 348 322 352 342 316 335 341 337 339 341 335 330 328 327 332 334 320 302 287 274 259 246 247 245 242 236 233 232 230 229 227 219 215 227
3 334 348 7 4 21 19 26 15 360 350 228 323 313 325 343 343 345 344 337 328 330 334 332 339 347 338 313 290 279 266 251 244 243 245 243 238 235 234 232 230 225 222 226
332 305 345 352 10 359 27 41 60 201 321 300 293 278 335 333 341 343 346 345 347 349 343 337 330 338 346 337 310 278 265 256 248 244 245 243 245 241 237 234 233 231 229 220
341 289 308 340 8 18 10 20 29 83 278 300 296 299 317 336 346 349 359 357 354 347 347 343 336 338 347 347 328 302 272 253 247 245 245 244 240 239 237 234 233 231 226 231
331 295 265 321 318 19 22 15 18 11 45 316 299 293 297 345 352 2 5 1 355 350 350 346 345 343 346 346 340 325 298 267 248 243 244 245 244 238 237 234 233 230 231 227
312 282 283 299 269 310 342 3 20 23 26 153 288 288 334 347 347 353 355 351 349 351 351 348 352 357 358 353 359 359 354 323 287 265 252 245 243 241 239 236 232 229 228 227
291 288 280 274 277 271 291 309 302 227 239 230 235 279 325 341 340 342 351 355 355 356 359 0 2 4 10 9 24 23 23 26 349 303 270 257 253 246 238 233 231 228 226 226
303 263 303 279 270 276 272 294 286 284 276 235 191 299 329 325 328 337 354 1 1 2 4 3 5 8 13 16 23 19 16 18 26 16 333 295 275 259 248 240 233 230 227 225
283 281 263 273 290 293 285 291 281 263 254 261 274 319 328 320 333 354 357 5 5 4 6 6 1 6 10 12 12 8 9 7 7 14 23 11 328 297 267 233 229 228 227 226
260 273 289 284 279 283 284 278 276 272 267 263 304 317 335 349 11 353 351 355 1 5 7 7 0 1 5 7 9 3 354 359 5 1 1 12 25 333 196 182 198 213 220 221
252 271 285 300 289 277 281 276 273 269 267 277 292 329 339 347 338 336 340 343 350 360 5 7 2 356 359 1 5 12 15 7 1 359 355 9 26 42 137 149 169 189 197 207
247 267 286 298 292 298 290 200 239 253 275 282 286 308 326 321 314 331 335 333 341 350 0 2 2 354 357 2 4 6 14 19 14 351 337 344 75 95 91 128 151 157 169 186
250 259 266 282 296 295 248 215 285 266 271 274 268 285 308 297 277 326 338 327 324 343 352 355 359 354 349 358 8 12 27 34 20 9 25 120 106 98 87 83 77 72 212 188
244 241 241 248 264 283 276 256 236 252 285 249 299 277 283 290 270 307 338 328 319 330 340 351 351 352 355 356 8 18 27 36 33 58 95 104 98 91 93 96 86 69 60 149
236 234 222 228 228 237 244 202 225 260 258 267 315 305 282 292 278 278 311 321 312 319 324 333 340 345 355 0 5 22 28 33 54 74 92 99 105 106 104 98 86 80 73 79
214 221 225 229 229 262 258 246 246 229 195 296 286 295 302 304 303 290 291 296 304 301 303 313 324 332 340 349 356 15 39 50 66 82 94 103 106 109 110 105 100 95 95 101
227 211 213 215 222 256 254 237 224 223 221 296 284 265 293 304 304 300 304 292 290 297 291 293 303 315 318 320 326 333 94 90 96 100 107 112 114 115 114 113 111 110 112 116
217 214 216 218 231 235 224 224 207 224 274 286 280 270 282 293 290 292 287 292 291 284 291 283 283 293 296 287 276 268 226 176 157 140 131 120 116 117 118 118 118 118 120 123
229 221 225 233 245 251 241 231 219 269 273 273 278 274 281 287 282 284 279 284 290 293 279 277 274 273 278 277 257 247 238 221 203 196 192 186 182 172 160 155 151 147 146 148
231 221 228 240 255 253 250 251 247 240 255 263 270 281 288 286 285 277 277 278 285 290 291 284 269 262 263 266 264 248 242 237 225 216 213 213 210 210 207 201 194 189 187 184
231 232 228 243 266 258 246 244 239 244 244 259 268 277 281 286 290 286 282 276 279 285 284 280 279 272 263 258 255 259 247 241 238 229 226 225 224 221 221 221 221 219 216 213
Height
3147 3148 3142 3141 3139 3137 3136 3136 3133 3132 3128 3127 3124 3124 3123 3122 3120 3117 3114 3112 3110 3108 3108 3107 3106 3105 3105 3105 3106 3104 3108 3108 3108 3106 3105 3105 3109 3115 3117 3123 3127 3130 3134 3136
3147 3145 3145 3144 3141 3140 3137 3135 3133 3131 3129 3127 3125 3123 3122 3121 3120 3118 3116 3113 3111 3109 3106 3105 3105 3102 3102 3102 3101 3101 3102 3105 3105 3106 3104 3104 3107 3108 3111 3115 3117 3121 3130 3134
3147 3148 3146 3143 3141 3139 3135 3132 3130 3131 3129 3127 3124 3122 3120 3120 3119 3118 3115 3113 3111 3109 3107 3104 3102 3102 3100 3098 3098 3097 3099 3101 3102 3102 3102 3103 3105 3107 3110 3112 3115 3115 3123 3127
3148 3148 3146 3143 3141 3138 3133 3131 3130 3129 3128 3127 3125 3124 3120 3118 3118 3117 3115 3112 3110 3108 3106 3104 3102 3100 3098 3096 3095 3095 3095 3096 3096 3097 3099 3103 3104 3105 3107 3110 3114 3117 3119 3123
3149 3148 3146 3143 3141 3138 3136 3131 3130 3128 3128 3127 3126 3124 3119 3117 3116 3115 3113 3111 3108 3106 3104 3101 3099 3096 3095 3093 3091 3091 3091 3090 3090 3092 3095 3097 3101 3103 3105 3108 3111 3113 3116 3119
3148 3148 3146 3143 3140 3138 3134 3131 3130 3128 3127 3127 3125 3125 3119 3117 3116 3114 3111 3110 3108 3105 3102 3099 3096 3092 3089 3087 3086 3083 3084 3085 3086 3087 3089 3092 3095 3098 3100 3103 3107 3109 3111 3114
3147 3147 3146 3144 3141 3138 3135 3130 3129 3132 3130 3128 3123 3122 3119 3117 3115 3113 3110 3108 3106 3103 3101 3098 3094 3091 3085 3081 3079 3078 3077 3079 3081 3081 3083 3085 3088 3091 3094 3097 3100 3104 3107 3109
3146 3145 3146 3144 3141 3139 3135 3132 3131 3141 3139 3130 3123 3120 3118 3115 3113 3111 3108 3106 3104 3102 3099 3096 3092 3088 3083 3077 3074 3073 3072 3072 3074 3076 3078 3079 3081 3084 3088 3091 3094 3097 3100 3104
3146 3146 3145 3144 3141 3140 3136 3135 3135 3134 3135 3134 3123 3119 3116 3114 3112 3109 3106 3104 3101 3099 3097 3094 3090 3086 3082 3076 3071 3069 3068 3068 3069 3071 3073 3074 3077 3079 3082 3085 3088 3091 3094 3097
3145 3145 3144 3142 3141 3140 3139 3137 3135 3134 3139 3139 3122 3119 3115 3113 3110 3108 3106 3103 3101 3098 3094 3091 3088 3085 3080 3074 3069 3067 3066 3066 3066 3066 3067 3069 3070 3073 3076 3078 3082 3085 3088 3091
3143 3147 3145 3142 3139 3138 3138 3137 3135 3135 3136 3137 3137 3118 3115 3112 3110 3107 3105 3103 3100 3097 3094 3090 3086 3084 3079 3072 3068 3067 3064 3063 3063 3063 3063 3064 3066 3067 3069 3071 3074 3078 3082 3086
3142 3142 3142 3140 3138 3136 3136 3135 3134 3133 3135 3133 3132 3119 3115 3111 3109 3106 3104 3102 3099 3096 3093 3090 3086 3082 3078 3073 3069 3067 3066 3063 3062 3062 3061 3061 3060 3061 3064 3065 3068 3072 3075 3080
3140 3139 3142 3138 3139 3134 3132 3132 3132 3130 3130 3128 3129 3116 3113 3110 3107 3105 3103 3101 3099 3096 3093 3089 3086 3083 3078 3074 3072 3069 3067 3065 3063 3061 3059 3058 3058 3058 3058 3060 3062 3066 3070 3073
3138 3137 3141 3141 3136 3133 3129 3128 3127 3128 3128 3124 3118 3113 3112 3109 3106 3105 3104 3101 3099 3096 3093 3090 3087 3084 3081 3076 3072 3070 3067 3064 3062 3061 3059 3057 3056 3055 3055 3056 3059 3062 3066 3069
3136 3134 3135 3137 3133 3128 3125 3124 3123 3122 3123 3120 3114 3111 3109 3107 3106 3105 3104 3102 3100 3097 3094 3091 3088 3085 3081 3078 3074 3070 3067 3065 3063 3060 3058 3057 3057 3056 3055 3055 3057 3060 3064 3067
3132 3132 3129 3131 3128 3123 3120 3119 3118 3116 3115 3113 3112 3109 3109 3106 3105 3105 3104 3103 3100 3098 3095 3092 3089 3087 3083 3079 3075 3072 3068 3064 3062 3061 3059 3058 3057 3057 3057 3057 3058 3060 3063 3066
3130 3128 3127 3127 3129 3122 3114 3110 3112 3111 3110 3111 3109 3108 3107 3106 3104 3104 3104 3103 3101 3099 3096 3093 3090 3088 3085 3081 3077 3074 3069 3066 3064 3062 3061 3060 3059 3059 3060 3059 3060 3061 3063 3064
3125 3125 3126 3124 3127 3123 3109 3108 3108 3108 3106 3106 3105 3105 3104 3104 3103 3102 3102 3101 3101 3099 3097 3094 3091 3088 3087 3084 3080 3076 3071 3068 3065 3062 3062 3062 3063 3063 3063 3062 3063 3063 3063 3065
3120 3121 3122 3123 3121 3115 3107 3103 3105 3105 3104 3103 3103 3102 3101 3101 3101 3102 3101 3100 3099 3098 3096 3095 3093 3090 3087 3085 3082 3079 3075 3071 3067 3063 3063 3064 3065 3066 3066 3066 3066 3066 3065 3062
3112 3114 3120 3116 3119 3113 3104 3102 3101 3102 3101 3101 3101 3100 3099 3099 3099 3099 3098 3098 3098 3097 3096 3094 3093 3091 3088 3086 3084 3082 3079 3076 3073 3070 3068 3069 3070 3071 3071 3070 3069 3070 3068 3064
3103 3107 3109 3111 3109 3105 3104 3101 3099 3100 3102 3097 3098 3098 3097 3097 3098 3098 3097 3095 3095 3095 3094 3093 3092 3090 3089 3087 3085 3084 3083 3080 3078 3076 3075 3075 3075 3075 3075 3073 3073 3073 3072 3070
3097 3101 3102 3106 3105 3099 3095 3097 3098 3097 3094 3095 3094 3095 3095 3094 3094 3094 3094 3093 3091 3092 3092 3091 3091 3090 3089 3087 3086 3085 3084 3084 3083 3082 3081 3080 3079 3079 3078 3077 3077 3077 3076 3075
3090 3091 3093 3095 3091 3090 3090 3091 3093 3093 3093 3091 3091 3091 3092 3092 3091 3091 3090 3090 3090 3088 3089 3087 3087 3087 3087 3086 3086 3085 3085 3085 3085 3085 3084 3083 3083 3082 3082 3082 3081 3081 3081 3080
3078 3083 3085 3086 3086 3087 3087 3088 3088 3089 3089 3087 3087 3087 3088 3088 3087 3087 3087 3086 3086 3086 3083 3083 3084 3083 3083 3084 3084 3084 3084 3084 3084 3085 3085 3085 3084 3084 3084 3083 3083 3083 3083 3083
3072 3076 3077 3077 3080 3081 3081 3081 3083 3083 3083 3082 3081 3080 3081 3081 3082 3081 3082 3082 3081 3081 3080 3079 3078 3078 3079 3079 3080 3080 3080 3081 3082 3082 3083 3083 3084 3084 3084 3084 3084 3084 3084 3084
3059 3063 3066 3069 3075 3074 3075 3074 3076 3077 3077 3076 3075 3074 3074 3073 3075 3074 3075 3076 3075 3074 3074 3074 3075 3075 3075 3073 3074 3075 3076 3076 3077 3078 3079 3080 3080 3081 3081 3082 3082 3082 3083 3083